Back to catalog

SDA_1678

AliveMilitaryPO
NORAD 65988·PAYLOAD·🇺🇸 United States

Launched Oct 15, 2025 from Vandenberg Space Force Base

Loading…

Next Passes (next 24 hours)

TLE

FreshSource: Space-Track

Epoch: Sep 14, 2026, 15:02 UTC

1 65988U 25230Q   26257.62656515  .00000150  00000-0  12181-3 0  9998
2 65988  81.3004 128.6057 0001606   3.5797 356.5371 13.84991955 46203

Track SDA_1678 in real time with AllMySat

Download on the App Store